Location: Hopewell Observatory
(38.8698°N, 77.6988°W)
Time: 00:55:16
(UTC-04:00)

Daily predictions for brighter satellites

Satellite Brightness Start Highest point End
(mag) Time Altitude Azimuth Time Altitude Azimuth Time Altitude Azimuth
Cosmos 2344 4.2 03:27:45 52° NNE 03:27:45 52° NNE 03:34:03 10° NNE
USA 215 3.6 03:55:24 10° ESE 04:01:22 62° ENE 04:01:22 62° ENE
CENTAUR R/B 4.3 03:57:14 10° NNW 04:04:21 37° NE 04:11:54 10° ESE
CZ-4B R/B 4.4 04:19:27 10° NNE 04:24:32 38° E 04:26:34 28° SE
CZ-2D R/B 3.8 04:21:14 10° N 04:23:15 23° N 04:23:15 23° N
Cosmos 1898 Rocket 4.0 04:29:39 56° E 04:29:39 56° E 04:34:24 10° NNE
Cosmos 1153 Rocket 4.4 04:28:23 10° N 04:34:26 81° NNW 04:34:26 81° NNW
Cosmos 1339 Rocket 4.5 04:37:17 73° NW 04:37:17 73° NW 04:43:15 10° N
Cosmos 1937 Rocket 4.3 04:36:06 44° SE 04:36:54 48° ESE 04:41:57 10° NNE
Resurs 1-4 Rocket 3.8 04:33:17 10° N 04:35:23 23° NNW 04:35:23 23° NNW
Meteor 2-4 Rocket 3.8 04:38:08 80° SE 04:38:20 82° E 04:44:18 10° N
Cosmos 724 4.4 04:36:28 45° NNW 04:38:33 81° ENE 04:44:46 10° SSE
NOSS 3-4 (A) 4.4 04:43:54 34° NNW 04:43:54 34° NNW 04:49:12 10° NNE
NOSS 3-4 (C) 4.4 04:43:59 35° NNW 04:43:59 35° NNW 04:49:19 10° NNE
SL-16 R/B 2.2 04:38:02 10° NNW 04:43:46 81° ENE 04:49:26 10° SSE
DELTA 2 R/B (1) 3.5 04:46:14 83° ENE 04:46:14 83° ENE 04:51:36 10° E
Meteor 2-9 Rocket 4.3 04:41:06 10° N 04:46:49 76° E 04:52:38 10° SSE
Okean O Rocket 2.3 04:47:12 10° NNE 04:50:21 47° NNE 04:50:21 47° NNE
Cosmos 2227 Rocket 3.5 04:53:25 26° NNW 04:53:25 26° NNW 04:56:46 10° N
BREEZE-M DEB (TANK) 3.8 04:53:01 43° NNE 04:53:01 43° NNE 04:54:52 10° NE
Meteor 1-23 Rocket 4.1 04:52:38 75° SW 04:53:05 83° W 04:58:50 10° N
Cosmos 2297 Rocket 3.1 05:01:19 33° NW 05:01:19 33° NW 05:05:29 10° N
Cosmos 1892 Rocket 4.3 05:01:48 43° NNW 05:01:48 43° NNW 05:04:54 10° N
Cosmos 2228 3.4 04:59:58 10° N 05:04:20 65° E 05:08:39 10° SSE
CZ-4B R/B 3.0 04:59:53 10° NNE 05:04:23 88° ESE 05:04:42 78° S
Lacrosse 5 3.6 05:12:13 19° NNW 05:12:25 19° NNW 05:16:03 10° NNE
Cosmos 2100 Rocket 3.9 05:09:00 10° NNW 05:15:13 66° W 05:21:27 10° S
Cosmos 1802 Rocket 3.8 05:14:18 10° N 05:20:28 76° W 05:26:34 10° S
Cosmos 2061 Rocket 4.0 05:18:02 10° NNW 05:24:16 63° W 05:30:33 10° S
Cosmos 1725 Rocket 4.4 05:18:56 10° N 05:25:12 66° E 05:31:22 10° SSE
OAO 2 Rocket 3.8 05:26:15 38° SW 05:27:54 53° S 05:33:05 10° E
ADEOS II 2.2 05:23:07 10° NNE 05:28:24 75° ESE 05:33:38 10° S
CZ-4B DEB 4.2 05:25:23 10° N 05:30:46 58° WNW 05:34:08 23° SW
Cosmos 1603 3.9 05:25:55 10° NNW 05:31:40 75° ENE 05:37:19 10° SSE
Cosmos 2263 Rocket 4.2 05:27:10 10° SSE 05:31:46 27° ESE 05:36:21 10° NE
Cosmos 990 Rocket 3.9 05:30:49 26° SSW 05:33:45 68° WNW 05:38:59 10° NNE
ASTRO F (AKARI) 4.1 05:35:19 10° S 05:38:29 75° W 05:41:47 10° NNW
Genesis I 3.4 05:40:15 41° WSW 05:41:12 52° NW 05:45:07 10° NNE
ADEOS Rocket 3.2 05:36:56 10° N 05:43:46 61° WNW 05:49:53 10° SSW
USA 215 3.8 05:39:13 10° S 05:45:04 34° SW 05:48:46 20° WNW
Cosmos 2016 Rocket 4.0 05:38:53 10° NNW 05:45:04 58° W 05:51:09 10° S
USA 116 4.1 05:41:21 10° SSE 05:46:22 84° WSW 05:50:52 10° NNW
Cosmos 2058 Rocket 4.3 05:43:57 10° NNW 05:46:14 23° WNW 05:46:14 23° WNW
Cosmos 2173 Rocket 4.4 05:44:14 10° NNW 05:49:46 37° W 05:55:20 10° SSW
Thor Agena Rocket 3.7 05:47:58 10° S 05:53:05 49° W 05:58:14 10° NNW
EXPRESS MD2 3.6 05:51:20 25° WNW 05:53:20 71° SW 05:59:55 10° SE
Tiangong 1 1.4 05:52:48 30° NW 05:54:01 57° NNE 05:57:00 10° E
Cosmos 1515 3.8 05:50:38 12° SSW 05:54:01 52° W 05:57:46 10° N
Cosmos 1174 3.3 05:52:40 25° NW 05:54:13 52° WSW 05:57:37 10° SSE
CENTAUR R/B 3.2 05:47:42 10° NW 05:55:29 59° WSW 06:03:37 10° SSE
COSMO-SKYMED 1 4.3 05:52:20 10° SE 05:56:17 35° ENE 06:00:15 10° N
Meteor 1-31 Rocket 2.8 05:56:00 10° NNE 05:59:56 87° ESE 06:03:52 10° SSW
FALCON 9 R/B 4.1 05:54:19 17° SW 06:00:04 64° SSE 06:27:00 10° E
Cosmos 1340 2.6 05:57:01 10° S 06:00:48 90° WNW 06:04:38 10° N
Okean-O 2.8 05:58:02 10° N 06:02:20 50° WNW 06:06:36 10° SSW
Cosmos 2123 Rocket 4.1 05:58:33 10° SSW 06:04:34 54° W 06:10:37 10° N
CZ-4B R/B 4.1 06:00:23 10° N 06:04:54 27° WNW 06:08:27 14° WSW
CZ-3A R/B 4.1 05:59:46 11° SW 06:05:05 17° SSW 06:07:51 10° SSE
NOSS 2-2 (D) 4.5 06:04:35 20° W 06:06:43 31° NW 06:10:58 10° NNE
Cosmos 1626 Rocket 4.2 06:05:34 10° SW 06:09:30 33° WNW 06:13:27 10° NNW
Meteor PRIRODA 4.1 06:06:54 10° N 06:10:24 39° WNW 06:13:51 10° SW
Cosmos 1125 Rocket 3.4 06:12:37 10° SSW 06:17:46 69° WNW 06:22:59 10° NNE
Radarsat Rocket 4.2 06:15:41 10° NNE 06:22:15 84° ESE 06:28:12 10° SSW
Cosmos 2098 Rocket 4.5 06:22:33 10° NW 06:26:01 22° W 06:30:05 10° SW
SL-16 R/B 3.8 06:24:56 10° WNW 06:27:03 12° W 06:29:09 10° WSW
Cosmos 1842 3.7 06:24:27 10° S 06:28:18 65° E 06:32:09 10° NNE
CZ-4B R/B 4.1 06:25:09 10° N 06:28:46 41° WNW 06:32:16 10° SW
Cosmos 1953 Rocket 3.6 06:25:06 10° S 06:29:34 89° E 06:34:05 10° N
DELTA 2 R/B (1) 3.6 06:27:00 10° W 06:32:34 89° N 06:38:10 10° E
Cosmos 1953 3.8 06:32:17 10° N 06:36:08 43° E 06:39:58 10° SSE
Iridium 4 Rocket 3.2 06:31:49 10° S 06:36:39 79° W 06:41:05 10° N
Cosmos 1464 Rocket 4.3 06:35:35 10° N 06:41:43 74° E 06:47:52 10° SSE
Cosmos 2084 Rocket 3.6 06:38:08 10° NW 06:41:53 45° WSW 06:45:49 10° SSE
Cosmos 1758 Rocket 3.5 06:38:15 10° SSW 06:42:34 76° W 06:46:53 10° N
NOAA 6 4.3 06:39:01 10° N 06:44:02 49° WNW 06:48:59 10° SW
SKYMED 2 3.6 06:39:58 10° S 06:44:15 64° W 06:48:34 10° NNW
MOS 1 Rocket 4.3 06:42:20 10° N 06:46:37 30° WNW 06:51:06 10° SW
